Regional Weather Roundup
Issued by NWS Newport/Morehead, NC

Current Version | Previous Version | Text Only | Print | Product List | Glossary Off
Versions: 1 2 3 4 5 6 7 8 9 10 11 12 13 14 15 16 17 18 19 20 21 22 23 24 25 26 27 28 29 30 31 32 33 34 35 36 37 38 39 40 41 42 43 44 45 46 47 48 49 50
000 ASUS42 KMHX 251626 RWRMHX WEATHER ROUNDUP FOR EASTERN NORTH CAROLINA NATIONAL WEATHER SERVICE NEWPORT/MOREHEAD CITY NC 1200 PM EDT THU MAY 25 2017 NOTE: "FAIR" INDICATES FEW OR NO CLOUDS BELOW 12,000 FEET WITH NO SIGNIFICANT WEATHER AND/OR OBSTRUCTIONS TO VISIBILITY NCZ015>017-031-032-045>047-102-103-251700- NORTH COAST CITY SKY/WX TMP DP RH WIND PRES REMARKS EDENTON CLOUDY 76 67 73 CALM 29.57S ELIZABETH CITY MOSUNNY 78 68 71 S20G30 29.55F KITTY HAWK MOSUNNY 79 64 59 SW10G21 29.56F MANTEO MOSUNNY 78 64 61 SW23 29.57F $$ NCZ045>047-081-094-103-104-251700- CENTRAL COAST CITY SKY/WX TMP DP RH WIND PRES REMARKS FRISCO NOT AVBL $$ NCZ095-097-098-100-101-251700- SOUTHERN COAST CITY SKY/WX TMP DP RH WIND PRES REMARKS BEAUFORT SUNNY 77 64 64 SW25G35 29.62F CEDAR ISLAND NOT AVBL JACKSONVILLE PTSUNNY 76 58 53 W16G24 29.60F PINEY ISLAND SUNNY N/A N/A N/A SW25G46 29.60F WILMINGTON MOSUNNY 77 57 50 SW18G28 29.62F $$ NCZ011>013-027>030-043-044-078>080-089-090>093-098-251700- COASTAL PLAIN CITY SKY/WX TMP DP RH WIND PRES REMARKS AHOSKIE N/A 74 63 66 S6 29.55F CLINTON MOSUNNY 74 59 59 SW14 29.60F ELIZABETHTOWN MOSUNNY 75 55 50 SW16G22 29.62S GOLDSBORO PTSUNNY 76 58 55 SW23 29.57F GREENVILLE PTSUNNY 77 59 53 SW18G24 29.61F HAVELOCK NOT AVBL KENANSVILLE PTSUNNY 75 57 53 SW14G21 29.60F KINSTON PTSUNNY 75 57 53 SW5G13 29.59F NEW BERN MOSUNNY 77 61 57 SW16 29.61F RICHLANDS PTSUNNY 76 62 62 SW14G23 29.61F ROCKY MOUNT CLOUDY 73 61 65 SW12G25 29.57F WASHINGTON PTSUNNY 74 63 68 SW12 29.58F WHITEVILLE MOSUNNY 75 56 52 SW15G24 29.63S $$ AMZ130-135-150-152-154-156-158-170-250-252-270-ANZ085-086-088-633-658-670-251700- MARINE OBSERVATIONS STATION/POSITION TIME TEMP WIND PRES WAVE SWELL AIR SEA DIR/SP/G HT/PER HT/PER (UTC) (F) (DEG/KT/KT) (MB) (FT/S) (FT/S) CHESAPEAKE LIGHT NOT AVBL 64 E VA BEACH 1550 67 65 190/ 12/ 14 1002.0 6/ 7 5/ 7 DUCK 1600 76 63 200/ 18/ 24 1000.4 2 E DUCK 1600 64 N/A 3/ 7 OREGON INLET 1600 200/ 21/ 28 1001.7 13E OREGON INLT 1548 66 N/A 6/ 8 2/17 HATTERAS CG 1600 77 73 230/ 15/ 24 1002.6 DIAMOND BUOY 1550 78 77 230/ 27/ 33 1002.8 9/ 7 5/15 CAPE LOOKOUT 1600 76 240/ 16/ 21 1002.8 BEAUFORT LAB 1600 76 72 230/ 9/ 15 1002.2 30 SE NEW RVR IN 1608 74 75 250/ 23/ 31 1003.6 30 SE NEW RVR IN 1613 75 N/A 10/ 9 2/11 27 SE WRIGHTSVLE 1608 73 75 220/ 21/ 29 1003.0 5 SE WRIGHTSVLE 1608 73 74 220/ 16/ 29 1003.9 225 S CAPE HAT 1550 77 76 190/ 23/ 27 1009.3 10/ 8 3/13 41 SE CHARLESTON 1610 72 75 220/ 21/ 27 1005.9 $$

USA.gov is the U.S. government's official web portal to all federal, state and local government web resources and services.